Back to catalog

ASBM-2

AliveMilitaryHEO
NORAD 60423·PAYLOAD·🇳🇴 Norway

Launched Aug 12, 2024 from Vandenberg Space Force Base

Loading…

Next Passes (next 24 hours)

TLE

FreshSource: Space-Track

Epoch: Sep 8, 2026, 06:16 UTC

1 60423U 24143B   26251.26169309 -.00000040  00000-0  00000-0 0  9996
2 60423  62.9077  42.3116 5627340 269.4333  29.5032  1.50425200 12858

Track ASBM-2 in real time with AllMySat

Download on the App Store